Wetterdaten: Woche 12.02.18 - 18.02.18 (KW7)
Datum Zeit Temp. A. Pool Temp. Feuchte A. Luftdruck Regen Wind Richtung Sonnenschein ET UV Solar Taupunkt Windchill Windben Empfang
12.02.2018 00:00 2,1 C 4,4 C 95 % 1008,7 hPa 0,2 l/m 12,8 km/h (3 Bft) SW 0,00 h 0,000 mm 0,0 UV-I 0 W/m 1,4 C -2,9 C 18,2 km/h (3 Bft) 98,35 %
12.02.2018 01:00 2,3 C 4,4 C 94 % 1009,2 hPa 0,0 l/m 14,1 km/h (3 Bft) W-SW 0,00 h 0,000 mm 0,0 UV-I 0 W/m 1,4 C -3,7 C 19,3 km/h (3 Bft) 97,45 %
12.02.2018 02:00 2,1 C 4,4 C 93 % 1009,4 hPa 0,0 l/m 10,3 km/h (2 Bft) W-SW 0,00 h 0,000 mm 0,0 UV-I 0 W/m 1,1 C -1,2 C 14,4 km/h (3 Bft) 99,21 %
12.02.2018 03:00 2,2 C 4,4 C 92 % 1009,5 hPa 0,0 l/m 8,2 km/h (2 Bft) SW 0,00 h 0,000 mm 0,0 UV-I 0 W/m 1,0 C 0,6 C 12,1 km/h (2 Bft) 96,18 %
12.02.2018 04:00 1,7 C 4,4 C 94 % 1009,8 hPa 0,4 l/m 10,9 km/h (2 Bft) SW 0,00 h 0,000 mm 0,0 UV-I 0 W/m 0,8 C -2,2 C 16,0 km/h (3 Bft) 97,84 %
12.02.2018 05:00 1,0 C 4,4 C 96 % 1009,9 hPa 0,2 l/m 8,6 km/h (2 Bft) S-SW 0,00 h 0,000 mm 0,0 UV-I 0 W/m 0,5 C -1,1 C 12,5 km/h (3 Bft) 97,42 %
12.02.2018 06:00 1,4 C 4,4 C 95 % 1010,0 hPa 0,0 l/m 7,8 km/h (2 Bft) SW 0,00 h 0,000 mm 0,0 UV-I 0 W/m 0,7 C -0,0 C 11,3 km/h (2 Bft) 99,02 %
12.02.2018 07:00 1,5 C 4,4 C 95 % 1010,5 hPa 0,0 l/m 8,3 km/h (2 Bft) S-SW 0,00 h 0,000 mm 0,0 UV-I 9 W/m 0,8 C -0,3 C 11,8 km/h (2 Bft) 96,60 %
12.02.2018 08:00 1,5 C 4,4 C 95 % 1010,8 hPa 0,0 l/m 5,7 km/h (1 Bft) S-SW 0,00 h 0,000 mm 0,0 UV-I 40 W/m 0,8 C 1,1 C 8,5 km/h (2 Bft) 96,87 %
12.02.2018 09:00 1,9 C 4,4 C 94 % 1011,1 hPa 0,0 l/m 8,0 km/h (2 Bft) SW 0,00 h 0,025 mm 0,0 UV-I 71 W/m 1,0 C 0,4 C 11,8 km/h (2 Bft) 98,37 %
12.02.2018 10:00 2,3 C 4,4 C 93 % 1011,5 hPa 0,0 l/m 7,4 km/h (2 Bft) W-SW 0,00 h 0,026 mm 0,5 UV-I 112 W/m 1,3 C 1,0 C 10,9 km/h (2 Bft) 98,79 %
12.02.2018 11:00 1,9 C 4,4 C 92 % 1012,3 hPa 0,2 l/m 12,7 km/h (3 Bft) W-SW 0,00 h 0,051 mm 0,5 UV-I 150 W/m 0,7 C -3,2 C 17,9 km/h (3 Bft) 98,19 %
12.02.2018 12:00 2,1 C 4,4 C 89 % 1013,0 hPa 0,0 l/m 14,0 km/h (3 Bft) W 0,00 h 0,050 mm 0,5 UV-I 155 W/m 0,5 C -3,7 C 19,6 km/h (3 Bft) 97,59 %
12.02.2018 13:00 2,4 C 4,4 C 86 % 1013,4 hPa 0,2 l/m 13,9 km/h (3 Bft) W-SW 0,00 h 0,077 mm 0,4 UV-I 146 W/m 0,3 C -3,2 C 20,5 km/h (4 Bft) 97,35 %
12.02.2018 14:00 2,6 C 4,4 C 80 % 1013,7 hPa 0,0 l/m 14,1 km/h (3 Bft) W-SW 0,00 h 0,076 mm 0,0 UV-I 142 W/m -0,5 C -3,2 C 19,4 km/h (3 Bft) 99,04 %
12.02.2018 15:00 2,5 C 4,4 C 80 % 1013,9 hPa 0,0 l/m 10,6 km/h (2 Bft) W-SW 0,40 h 0,000 mm 0,0 UV-I 139 W/m -0,6 C -0,9 C 15,2 km/h (3 Bft) 98,00 %
12.02.2018 16:00 2,3 C 4,4 C 80 % 1014,3 hPa 0,0 l/m 7,7 km/h (2 Bft) W-SW 0,05 h 0,076 mm 0,0 UV-I 52 W/m -0,8 C 1,0 C 11,2 km/h (2 Bft) 97,39 %
12.02.2018 17:00 1,4 C 4,4 C 86 % 1014,9 hPa 0,0 l/m 11,8 km/h (2 Bft) SW 0,08 h 0,025 mm 0,0 UV-I 10 W/m -0,7 C -2,8 C 16,9 km/h (3 Bft) 97,76 %
12.02.2018 18:00 0,7 C 4,4 C 89 % 1015,7 hPa 0,0 l/m 10,9 km/h (2 Bft) W-SW 0,00 h 0,026 mm 0,0 UV-I 0 W/m -0,9 C -3,4 C 16,0 km/h (3 Bft) 98,95 %
12.02.2018 19:00 0,6 C 4,4 C 89 % 1016,3 hPa 0,0 l/m 10,5 km/h (2 Bft) W-SW 0,00 h 0,000 mm 0,0 UV-I 0 W/m -1,1 C -3,0 C 14,5 km/h (3 Bft) 98,77 %
12.02.2018 20:00 0,3 C 4,4 C 89 % 1016,8 hPa 0,0 l/m 10,7 km/h (2 Bft) SW 0,00 h 0,000 mm 0,0 UV-I 0 W/m -1,3 C -3,6 C 15,1 km/h (3 Bft) 96,97 %
12.02.2018 21:00 0,2 C 4,4 C 89 % 1017,4 hPa 0,0 l/m 9,8 km/h (2 Bft) W-SW 0,00 h 0,000 mm 0,0 UV-I 0 W/m -1,4 C -2,9 C 13,7 km/h (3 Bft) 97,96 %
12.02.2018 22:00 -0,1 C 4,4 C 89 % 1017,8 hPa 0,0 l/m 7,9 km/h (2 Bft) W-SW 0,00 h 0,000 mm 0,0 UV-I 0 W/m -1,6 C -1,7 C 11,8 km/h (2 Bft) 97,89 %
12.02.2018 23:00 -0,2 C 4,4 C 90 % 1018,0 hPa 0,0 l/m 9,2 km/h (2 Bft) W-SW 0,00 h 0,000 mm 0,0 UV-I 0 W/m -1,7 C -3,0 C 13,0 km/h (3 Bft) 99,38 %
13.02.2018 00:00 -0,4 C 4,4 C 90 % 1018,0 hPa 0,0 l/m 9,3 km/h (2 Bft) SW 0,00 h 0,000 mm 0,0 UV-I 0 W/m -1,8 C -3,3 C 12,8 km/h (3 Bft) 92,06 %
13.02.2018 01:00 -0,4 C 4,4 C 90 % 1018,2 hPa 0,0 l/m 8,1 km/h (2 Bft) W-SW 0,00 h 0,000 mm 0,0 UV-I 0 W/m -1,9 C -2,2 C 12,0 km/h (2 Bft) 97,58 %
13.02.2018 02:00 -0,4 C 4,4 C 91 % 1018,2 hPa 0,0 l/m 6,0 km/h (2 Bft) W-SW 0,00 h 0,000 mm 0,0 UV-I 0 W/m -1,7 C -0,7 C 8,8 km/h (2 Bft) 97,99 %
13.02.2018 03:00 -0,3 C 4,4 C 89 % 1018,1 hPa 0,0 l/m 5,7 km/h (1 Bft) W 0,00 h 0,000 mm 0,0 UV-I 0 W/m -1,9 C -0,8 C 8,6 km/h (2 Bft) 99,38 %
13.02.2018 04:00 -0,6 C 4,4 C 88 % 1017,9 hPa 0,0 l/m 7,7 km/h (2 Bft) W 0,00 h 0,000 mm 0,0 UV-I 0 W/m -2,3 C -2,2 C 11,4 km/h (2 Bft) 96,43 %
13.02.2018 05:00 -0,8 C 4,4 C 89 % 1017,9 hPa 0,0 l/m 6,8 km/h (2 Bft) W-SW 0,00 h 0,000 mm 0,0 UV-I 0 W/m -2,3 C -1,7 C 10,1 km/h (2 Bft) 98,00 %
13.02.2018 06:00 -1,1 C 4,4 C 88 % 1017,9 hPa 0,0 l/m 6,1 km/h (2 Bft) W 0,00 h 0,000 mm 0,0 UV-I 0 W/m -2,7 C -2,0 C 9,1 km/h (2 Bft) 97,63 %
13.02.2018 07:00 -1,4 C 4,4 C 89 % 1018,2 hPa 0,0 l/m 4,7 km/h (1 Bft) W 0,30 h 0,000 mm 0,0 UV-I 24 W/m -3,1 C -1,5 C 7,0 km/h (2 Bft) 99,36 %
13.02.2018 08:00 -1,3 C 4,4 C 90 % 1018,4 hPa 0,0 l/m 5,0 km/h (1 Bft) W 0,28 h 0,000 mm 0,0 UV-I 88 W/m -2,8 C -1,6 C 7,4 km/h (2 Bft) 96,12 %
13.02.2018 09:00 -0,7 C 4,4 C 87 % 1018,4 hPa 0,0 l/m 2,7 km/h (1 Bft) W 0,87 h 0,025 mm 0,5 UV-I 212 W/m -2,6 C -0,7 C 4,5 km/h (1 Bft) 96,64 %
13.02.2018 10:00 0,4 C 4,4 C 80 % 1018,0 hPa 0,0 l/m 3,0 km/h (1 Bft) W-NW 1,00 h 0,077 mm 0,8 UV-I 377 W/m -2,7 C 0,4 C 5,2 km/h (1 Bft) 96,48 %
13.02.2018 11:00 1,4 C 4,4 C 75 % 1017,4 hPa 0,0 l/m 6,3 km/h (2 Bft) SW 0,98 h 0,127 mm 1,0 UV-I 514 W/m -2,6 C 0,4 C 9,4 km/h (2 Bft) 98,24 %
13.02.2018 12:00 1,3 C 4,4 C 71 % 1016,6 hPa 0,0 l/m 4,8 km/h (1 Bft) SW 0,32 h 0,177 mm 0,9 UV-I 242 W/m -3,4 C 1,1 C 7,6 km/h (2 Bft) 97,52 %
13.02.2018 13:00 1,5 C 4,4 C 67 % 1015,7 hPa 0,0 l/m 3,3 km/h (1 Bft) W-SW 0,30 h 0,102 mm 0,7 UV-I 202 W/m -3,8 C 1,5 C 5,3 km/h (1 Bft) 98,96 %
13.02.2018 14:00 1,5 C 4,4 C 67 % 1015,0 hPa 0,0 l/m 1,3 km/h (1 Bft) W-SW 0,37 h 0,076 mm 0,5 UV-I 165 W/m -3,9 C 1,5 C 2,6 km/h (1 Bft) 96,34 %
13.02.2018 15:00 1,6 C 4,4 C 65 % 1014,6 hPa 0,0 l/m 3,3 km/h (1 Bft) SW 0,93 h 0,076 mm 0,0 UV-I 215 W/m -4,1 C 1,5 C 5,2 km/h (1 Bft) 93,66 %
13.02.2018 16:00 1,0 C 4,4 C 71 % 1014,3 hPa 0,0 l/m 4,2 km/h (1 Bft) NO 0,53 h 0,077 mm 0,0 UV-I 74 W/m -3,8 C 1,0 C 5,4 km/h (1 Bft) 98,02 %
13.02.2018 17:00 0,5 C 4,4 C 74 % 1014,2 hPa 0,0 l/m 2,8 km/h (1 Bft) NO 0,20 h 0,025 mm 0,0 UV-I 16 W/m -3,6 C 0,5 C 3,8 km/h (1 Bft) 97,32 %
13.02.2018 18:00 -0,0 C 4,4 C 76 % 1014,1 hPa 0,0 l/m 2,3 km/h (1 Bft) NO 0,00 h 0,000 mm 0,0 UV-I 0 W/m -3,7 C -0,0 C 3,3 km/h (1 Bft) 98,87 %
13.02.2018 19:00 -0,2 C 4,4 C 79 % 1013,9 hPa 0,0 l/m 2,9 km/h (1 Bft) NO 0,00 h 0,000 mm 0,0 UV-I 0 W/m -3,5 C -0,2 C 4,0 km/h (1 Bft) 95,36 %
13.02.2018 20:00 -0,3 C 4,4 C 82 % 1013,9 hPa 0,0 l/m 1,9 km/h (1 Bft) O 0,00 h 0,000 mm 0,0 UV-I 0 W/m -3,0 C -0,3 C 2,9 km/h (1 Bft) 99,11 %
13.02.2018 21:00 -0,7 C 4,4 C 82 % 1013,7 hPa 0,0 l/m 4,1 km/h (1 Bft) O-SO 0,00 h 0,000 mm 0,0 UV-I 0 W/m -3,4 C -0,7 C 5,5 km/h (1 Bft) 97,70 %
13.02.2018 22:00 -1,2 C 4,4 C 85 % 1013,5 hPa 0,0 l/m 3,6 km/h (1 Bft) O-SO 0,00 h 0,000 mm 0,0 UV-I 0 W/m -3,4 C -1,2 C 5,0 km/h (1 Bft) 97,67 %
13.02.2018 23:00 -1,5 C 4,4 C 87 % 1013,3 hPa 0,0 l/m 3,9 km/h (1 Bft) O-SO 0,00 h 0,000 mm 0,0 UV-I 0 W/m -3,4 C -1,5 C 5,4 km/h (1 Bft) 96,19 %
14.02.2018 00:00 -2,2 C 4,4 C 90 % 1013,2 hPa 0,0 l/m 2,3 km/h (1 Bft) O-SO 0,00 h 0,000 mm 0,0 UV-I 0 W/m -3,6 C -2,2 C 3,3 km/h (1 Bft) 95,63 %
14.02.2018 01:00 -2,5 C 4,4 C 92 % 1013,0 hPa 0,0 l/m 2,9 km/h (1 Bft) O-SO 0,00 h 0,000 mm 0,0 UV-I 0 W/m -3,7 C -2,5 C 3,9 km/h (1 Bft) 98,73 %
14.02.2018 02:00 -2,9 C 4,4 C 93 % 1013,2 hPa 0,0 l/m 2,1 km/h (1 Bft) O-SO 0,00 h 0,000 mm 0,0 UV-I 0 W/m -3,8 C -2,9 C 2,9 km/h (1 Bft) 96,09 %
14.02.2018 03:00 -3,6 C 4,4 C 94 % 1013,3 hPa 0,0 l/m 1,6 km/h (1 Bft) O-SO 0,00 h 0,000 mm 0,0 UV-I 0 W/m -4,4 C -3,6 C 2,4 km/h (1 Bft) 98,55 %
14.02.2018 04:00 -3,6 C 4,4 C 95 % 1013,6 hPa 0,0 l/m 3,3 km/h (1 Bft) S 0,00 h 0,000 mm 0,0 UV-I 0 W/m -4,3 C -3,6 C 4,6 km/h (1 Bft) 96,41 %
14.02.2018 05:00 -3,3 C 4,4 C 92 % 1014,2 hPa 0,0 l/m 4,4 km/h (1 Bft) SW 0,00 h 0,000 mm 0,0 UV-I 0 W/m -4,4 C -3,3 C 6,0 km/h (2 Bft) 97,34 %
14.02.2018 06:00 -3,1 C 4,4 C 91 % 1015,0 hPa 0,0 l/m 5,3 km/h (1 Bft) W-SW 0,00 h 0,000 mm 0,0 UV-I 0 W/m -4,3 C -3,3 C 7,3 km/h (2 Bft) 98,03 %
14.02.2018 07:00 -2,9 C 4,4 C 91 % 1015,8 hPa 0,0 l/m 6,9 km/h (2 Bft) W-SW 0,00 h 0,000 mm 0,0 UV-I 9 W/m -4,2 C -4,0 C 9,6 km/h (2 Bft) 97,72 %
14.02.2018 08:00 -2,8 C 4,4 C 90 % 1016,6 hPa 0,0 l/m 6,9 km/h (2 Bft) W-SW 0,00 h 0,000 mm 0,0 UV-I 24 W/m -4,2 C -3,8 C 10,0 km/h (2 Bft) 97,60 %
14.02.2018 09:00 -2,4 C 4,4 C 90 % 1017,2 hPa 0,0 l/m 8,2 km/h (2 Bft) W-SW 0,00 h 0,000 mm 0,0 UV-I 79 W/m -3,9 C -4,5 C 11,8 km/h (2 Bft) 98,11 %
14.02.2018 10:00 -2,0 C 4,4 C 91 % 1017,8 hPa 0,0 l/m 6,3 km/h (2 Bft) SW 0,00 h 0,025 mm 0,0 UV-I 148 W/m -3,2 C -2,5 C 8,9 km/h (2 Bft) 98,20 %
14.02.2018 11:00 -1,5 C 4,4 C 92 % 1018,2 hPa 0,0 l/m 6,2 km/h (2 Bft) W-SW 0,00 h 0,051 mm 0,6 UV-I 196 W/m -2,6 C -1,8 C 8,7 km/h (2 Bft) 95,02 %
14.02.2018 12:00 -0,8 C 4,4 C 92 % 1018,4 hPa 0,4 l/m 5,4 km/h (1 Bft) W-SW 0,10 h 0,076 mm 0,7 UV-I 248 W/m -1,9 C -1,0 C 7,6 km/h (2 Bft) 98,09 %
14.02.2018 13:00 -0,4 C 4,4 C 92 % 1018,6 hPa 0,0 l/m 5,2 km/h (1 Bft) W-SW 0,00 h 0,077 mm 0,5 UV-I 166 W/m -1,5 C -0,5 C 7,4 km/h (2 Bft) 98,49 %
14.02.2018 14:00 -0,2 C 4,4 C 93 % 1018,7 hPa 0,0 l/m 6,3 km/h (2 Bft) SW 0,23 h 0,050 mm 0,5 UV-I 173 W/m -1,2 C -0,6 C 8,8 km/h (2 Bft) 97,85 %
14.02.2018 15:00 -0,0 C 4,4 C 92 % 1019,1 hPa 0,0 l/m 6,5 km/h (2 Bft) W-SW 0,93 h 0,051 mm 0,0 UV-I 199 W/m -1,2 C -0,6 C 9,7 km/h (2 Bft) 98,05 %
14.02.2018 16:00 -0,1 C 4,4 C 91 % 1019,5 hPa 0,0 l/m 7,1 km/h (2 Bft) W-SW 0,22 h 0,076 mm 0,0 UV-I 67 W/m -1,4 C -1,1 C 10,1 km/h (2 Bft) 94,41 %
14.02.2018 17:00 -0,6 C 4,4 C 92 % 1019,9 hPa 0,0 l/m 5,4 km/h (1 Bft) W-SW 0,02 h 0,026 mm 0,0 UV-I 8 W/m -1,7 C -1,2 C 7,6 km/h (2 Bft) 97,16 %
14.02.2018 18:00 -0,8 C 4,4 C 93 % 1020,6 hPa 0,0 l/m 3,2 km/h (1 Bft) W 0,00 h 0,000 mm 0,0 UV-I 0 W/m -1,7 C -0,8 C 4,6 km/h (1 Bft) 98,91 %
14.02.2018 19:00 -1,2 C 4,4 C 93 % 1020,8 hPa 0,0 l/m 4,3 km/h (1 Bft) W-SW 0,00 h 0,000 mm 0,0 UV-I 0 W/m -2,2 C -1,3 C 6,0 km/h (2 Bft) 97,16 %
14.02.2018 20:00 -2,1 C 4,4 C 94 % 1021,4 hPa 0,0 l/m 2,8 km/h (1 Bft) S-SW 0,00 h 0,000 mm 0,0 UV-I 0 W/m -2,9 C -2,1 C 3,9 km/h (1 Bft) 97,97 %
14.02.2018 21:00 -2,9 C 4,4 C 95 % 1022,0 hPa 0,0 l/m 2,3 km/h (1 Bft) S-SW 0,00 h 0,000 mm 0,0 UV-I 0 W/m -3,6 C -2,9 C 3,2 km/h (1 Bft) 97,29 %
14.02.2018 22:00 -3,3 C 4,4 C 95 % 1022,3 hPa 0,0 l/m 4,0 km/h (1 Bft) S-SW 0,00 h 0,000 mm 0,0 UV-I 0 W/m -3,9 C -3,3 C 5,2 km/h (1 Bft) 98,72 %
14.02.2018 23:00 -3,6 C 4,4 C 95 % 1022,2 hPa 0,0 l/m 3,2 km/h (1 Bft) S-SW 0,00 h 0,000 mm 0,0 UV-I 0 W/m -4,2 C -3,6 C 4,3 km/h (1 Bft) 96,30 %
15.02.2018 00:00 -4,2 C 4,4 C 95 % 1022,2 hPa 0,0 l/m 2,5 km/h (1 Bft) S-SW 0,00 h 0,000 mm 0,0 UV-I 0 W/m -4,8 C -4,2 C 3,5 km/h (1 Bft) 98,86 %
15.02.2018 01:00 -4,8 C 4,4 C 95 % 1022,1 hPa 0,0 l/m 2,6 km/h (1 Bft) S-SW 0,00 h 0,000 mm 0,0 UV-I 0 W/m -5,4 C -4,8 C 3,5 km/h (1 Bft) 98,80 %
15.02.2018 02:00 -5,2 C 4,4 C 95 % 1022,0 hPa 0,0 l/m 3,3 km/h (1 Bft) S 0,00 h 0,000 mm 0,0 UV-I 0 W/m -5,9 C -5,2 C 4,1 km/h (1 Bft) 95,99 %
15.02.2018 03:00 -5,6 C 4,4 C 95 % 1022,1 hPa 0,0 l/m 2,9 km/h (1 Bft) S 0,00 h 0,000 mm 0,0 UV-I 0 W/m -6,4 C -5,6 C 3,7 km/h (1 Bft) 99,16 %
15.02.2018 04:00 -6,0 C 4,4 C 94 % 1022,0 hPa 0,0 l/m 1,7 km/h (1 Bft) SW 0,00 h 0,000 mm 0,0 UV-I 0 W/m -6,8 C -6,0 C 2,4 km/h (1 Bft) 98,55 %
15.02.2018 05:00 -6,7 C 4,4 C 94 % 1022,2 hPa 0,0 l/m 1,3 km/h (1 Bft) O 0,00 h 0,000 mm 0,0 UV-I 0 W/m -7,4 C -6,7 C 1,8 km/h (1 Bft) 95,51 %
15.02.2018 06:00 -6,9 C 4,4 C 95 % 1022,2 hPa 0,0 l/m 1,1 km/h (1 Bft) O-NO 0,00 h 0,000 mm 0,0 UV-I 5 W/m -7,6 C -6,9 C 1,8 km/h (1 Bft) 98,75 %
15.02.2018 07:00 -5,8 C 4,4 C 95 % 1022,4 hPa 0,0 l/m 4,1 km/h (1 Bft) O 0,35 h 0,000 mm 0,0 UV-I 28 W/m -6,5 C -5,9 C 5,8 km/h (2 Bft) 96,60 %
15.02.2018 08:00 -4,5 C 4,4 C 96 % 1022,0 hPa 0,0 l/m 7,2 km/h (2 Bft) O-NO 0,08 h 0,000 mm 0,0 UV-I 72 W/m -5,1 C -5,6 C 10,3 km/h (2 Bft) 97,01 %
15.02.2018 09:00 -3,9 C 4,4 C 96 % 1022,3 hPa 0,0 l/m 7,5 km/h (2 Bft) O-NO 0,00 h 0,025 mm 0,2 UV-I 111 W/m -4,5 C -5,4 C 10,6 km/h (2 Bft) 97,82 %
15.02.2018 10:00 -3,3 C 4,4 C 96 % 1021,9 hPa 0,0 l/m 8,5 km/h (2 Bft) O-NO 0,00 h 0,026 mm 0,6 UV-I 202 W/m -3,8 C -5,6 C 11,7 km/h (2 Bft) 98,86 %
15.02.2018 11:00 -2,2 C 4,4 C 97 % 1021,5 hPa 0,0 l/m 7,8 km/h (2 Bft) O 0,53 h 0,051 mm 0,9 UV-I 296 W/m -2,6 C -3,9 C 11,0 km/h (2 Bft) 97,59 %
15.02.2018 12:00 -0,4 C 4,4 C 89 % 1020,9 hPa 0,0 l/m 10,7 km/h (2 Bft) O-NO 1,00 h 0,101 mm 1,0 UV-I 334 W/m -1,9 C -4,3 C 14,7 km/h (3 Bft) 97,60 %
15.02.2018 13:00 1,1 C 4,4 C 77 % 1020,6 hPa 0,0 l/m 12,2 km/h (2 Bft) O-NO 1,00 h 0,127 mm 1,0 UV-I 364 W/m -2,4 C -3,7 C 16,0 km/h (3 Bft) 93,10 %
15.02.2018 14:00 2,0 C 4,4 C 73 % 1020,5 hPa 0,0 l/m 10,9 km/h (2 Bft) O 1,00 h 0,153 mm 0,8 UV-I 333 W/m -2,4 C -1,8 C 14,6 km/h (3 Bft) 92,55 %
15.02.2018 15:00 2,0 C 4,4 C 72 % 1020,5 hPa 0,0 l/m 8,1 km/h (2 Bft) O 0,30 h 0,152 mm 0,5 UV-I 156 W/m -2,4 C 0,3 C 11,4 km/h (2 Bft) 96,17 %
15.02.2018 16:00 1,8 C 4,4 C 76 % 1020,8 hPa 0,0 l/m 3,2 km/h (1 Bft) O 0,00 h 0,076 mm 0,0 UV-I 47 W/m -2,0 C 1,8 C 4,8 km/h (1 Bft) 97,90 %
15.02.2018 17:00 1,3 C 4,4 C 79 % 1021,3 hPa 0,0 l/m 0,6 km/h (0 Bft) O 0,00 h 0,026 mm 0,0 UV-I 9 W/m -1,9 C 1,3 C 1,2 km/h (1 Bft) 98,74 %
15.02.2018 18:00 0,8 C 4,4 C 84 % 1021,7 hPa 0,0 l/m 1,6 km/h (1 Bft) O 0,00 h 0,000 mm 0,0 UV-I 0 W/m -1,6 C 0,8 C 2,4 km/h (1 Bft) 99,02 %
15.02.2018 19:00 0,2 C 4,4 C 90 % 1021,9 hPa 0,0 l/m 2,1 km/h (1 Bft) S-SO 0,00 h 0,000 mm 0,0 UV-I 0 W/m -1,2 C 0,2 C 3,4 km/h (1 Bft) 97,36 %
15.02.2018 20:00 -0,2 C 4,4 C 95 % 1021,9 hPa 0,0 l/m 1,2 km/h (1 Bft) S-SO 0,00 h 0,000 mm 0,0 UV-I 0 W/m -0,9 C -0,2 C 1,9 km/h (1 Bft) 96,12 %
15.02.2018 21:00 -0,2 C 4,4 C 96 % 1021,8 hPa 0,0 l/m 0,3 km/h (0 Bft) S-SO 0,00 h 0,000 mm 0,0 UV-I 0 W/m -0,8 C -0,2 C 0,5 km/h (0 Bft) 98,66 %
15.02.2018 22:00 -0,2 C 4,4 C 96 % 1021,6 hPa 0,0 l/m 1,5 km/h (1 Bft) S-SO 0,00 h 0,000 mm 0,0 UV-I 0 W/m -0,7 C -0,2 C 2,4 km/h (1 Bft) 98,26 %
15.02.2018 23:00 -0,1 C 4,4 C 97 % 1021,5 hPa 0,0 l/m 2,6 km/h (1 Bft) NO 0,00 h 0,000 mm 0,0 UV-I 0 W/m -0,5 C -0,1 C 3,5 km/h (1 Bft) 98,86 %
16.02.2018 00:00 -0,1 C 4,4 C 97 % 1021,1 hPa 0,0 l/m 3,0 km/h (1 Bft) NO 0,00 h 0,000 mm 0,0 UV-I 0 W/m -0,5 C -0,1 C 4,1 km/h (1 Bft) 96,03 %
16.02.2018 01:00 -0,1 C 4,4 C 97 % 1020,7 hPa 0,0 l/m 3,4 km/h (1 Bft) O-NO 0,00 h 0,000 mm 0,0 UV-I 0 W/m -0,5 C -0,1 C 4,7 km/h (1 Bft) 99,05 %
16.02.2018 02:00 -0,1 C 4,4 C 97 % 1020,5 hPa 0,0 l/m 4,9 km/h (1 Bft) NO 0,00 h 0,000 mm 0,0 UV-I 0 W/m -0,6 C -0,2 C 6,5 km/h (2 Bft) 98,02 %
16.02.2018 03:00 -0,2 C 4,4 C 97 % 1019,9 hPa 0,0 l/m 4,6 km/h (1 Bft) O-NO 0,00 h 0,000 mm 0,0 UV-I 0 W/m -0,6 C -0,2 C 6,3 km/h (2 Bft) 99,15 %
16.02.2018 04:00 -0,0 C 4,4 C 97 % 1020,0 hPa 1,0 l/m 0,9 km/h (0 Bft) NO 0,00 h 0,000 mm 0,0 UV-I 0 W/m -0,5 C -0,0 C 1,7 km/h (1 Bft) 92,65 %
16.02.2018 05:00 0,1 C 4,4 C 97 % 1020,6 hPa 1,0 l/m 0,1 km/h (0 Bft) NO 0,00 h 0,000 mm 0,0 UV-I 0 W/m -0,3 C 0,1 C 0,4 km/h (0 Bft) 98,80 %
16.02.2018 06:00 0,1 C 4,4 C 98 % 1022,0 hPa 1,0 l/m 3,1 km/h (1 Bft) W 0,00 h 0,000 mm 0,0 UV-I 0 W/m -0,2 C 0,1 C 4,9 km/h (1 Bft) 97,60 %
16.02.2018 07:00 0,4 C 4,4 C 98 % 1023,1 hPa 0,6 l/m 6,3 km/h (2 Bft) SW 0,00 h 0,000 mm 0,0 UV-I 12 W/m 0,1 C -0,3 C 9,0 km/h (2 Bft) 99,48 %
16.02.2018 08:00 1,0 C 4,4 C 98 % 1024,0 hPa 0,8 l/m 8,9 km/h (2 Bft) W 0,00 h 0,000 mm 0,0 UV-I 48 W/m 0,7 C -1,4 C 11,8 km/h (2 Bft) 96,68 %
16.02.2018 09:00 1,9 C 4,4 C 97 % 1024,8 hPa 1,2 l/m 9,8 km/h (2 Bft) W 0,03 h 0,025 mm 0,3 UV-I 102 W/m 1,5 C -1,1 C 13,3 km/h (3 Bft) 97,62 %
16.02.2018 10:00 2,5 C 4,4 C 97 % 1025,9 hPa 0,8 l/m 8,5 km/h (2 Bft) W 0,00 h 0,026 mm 0,5 UV-I 99 W/m 2,1 C 0,5 C 11,9 km/h (2 Bft) 97,90 %
16.02.2018 11:00 3,3 C 4,4 C 96 % 1026,3 hPa 0,2 l/m 7,7 km/h (2 Bft) W 0,00 h 0,025 mm 0,5 UV-I 136 W/m 2,8 C 1,9 C 11,4 km/h (2 Bft) 99,03 %
16.02.2018 12:00 3,5 C 4,4 C 97 % 1026,6 hPa 0,2 l/m 4,6 km/h (1 Bft) W 0,00 h 0,051 mm 0,5 UV-I 94 W/m 3,1 C 3,4 C 7,5 km/h (2 Bft) 97,76 %
16.02.2018 13:00 4,0 C 4,4 C 96 % 1026,5 hPa 0,0 l/m 4,5 km/h (1 Bft) W 0,00 h 0,025 mm 0,6 UV-I 157 W/m 3,5 C 3,8 C 6,8 km/h (2 Bft) 99,50 %
16.02.2018 14:00 4,3 C 4,4 C 95 % 1026,3 hPa 0,0 l/m 3,7 km/h (1 Bft) W-NW 0,00 h 0,051 mm 0,5 UV-I 88 W/m 3,6 C 4,2 C 5,6 km/h (1 Bft) 95,61 %
16.02.2018 15:00 3,6 C 4,4 C 96 % 1026,6 hPa 0,0 l/m 3,6 km/h (1 Bft) N-NW 0,00 h 0,026 mm 0,0 UV-I 48 W/m 3,1 C 3,6 C 5,4 km/h (1 Bft) 97,95 %
16.02.2018 16:00 3,4 C 4,4 C 96 % 1026,8 hPa 0,0 l/m 1,3 km/h (1 Bft) N-NW 0,00 h 0,025 mm 0,0 UV-I 18 W/m 2,9 C 3,4 C 2,5 km/h (1 Bft) 98,02 %
16.02.2018 17:00 3,2 C 4,4 C 97 % 1027,1 hPa 0,0 l/m 1,0 km/h (0 Bft) N-NW 0,00 h 0,000 mm 0,0 UV-I 5 W/m 2,7 C 3,2 C 1,7 km/h (1 Bft) 99,21 %
16.02.2018 18:00 2,9 C 4,4 C 97 % 1027,5 hPa 0,0 l/m 2,4 km/h (1 Bft) W-SW 0,00 h 0,000 mm 0,0 UV-I 0 W/m 2,5 C 2,9 C 3,8 km/h (1 Bft) 97,60 %
16.02.2018 19:00 2,9 C 4,4 C 98 % 1027,5 hPa 0,0 l/m 3,3 km/h (1 Bft) W-SW 0,00 h 0,000 mm 0,0 UV-I 0 W/m 2,5 C 2,9 C 4,7 km/h (1 Bft) 96,45 %
16.02.2018 20:00 2,8 C 4,4 C 98 % 1027,5 hPa 0,0 l/m 4,3 km/h (1 Bft) SW 0,00 h 0,000 mm 0,0 UV-I 0 W/m 2,4 C 2,8 C 6,0 km/h (2 Bft) 97,76 %
16.02.2018 21:00 2,5 C 4,4 C 98 % 1027,4 hPa 0,0 l/m 2,2 km/h (1 Bft) SW 0,00 h 0,000 mm 0,0 UV-I 0 W/m 2,2 C 2,5 C 3,2 km/h (1 Bft) 98,59 %
16.02.2018 22:00 2,0 C 4,4 C 98 % 1027,4 hPa 0,0 l/m 0,8 km/h (0 Bft) W-NW 0,00 h 0,000 mm 0,0 UV-I 0 W/m 1,7 C 2,0 C 1,6 km/h (1 Bft) 98,62 %
16.02.2018 23:00 1,6 C 4,4 C 98 % 1027,1 hPa 0,0 l/m 1,5 km/h (1 Bft) W-SW 0,00 h 0,000 mm 0,0 UV-I 0 W/m 1,3 C 1,6 C 2,6 km/h (1 Bft) 96,58 %
17.02.2018 00:00 1,3 C 4,4 C 98 % 1026,6 hPa 0,0 l/m 2,7 km/h (1 Bft) N-NO 0,00 h 0,000 mm 0,0 UV-I 0 W/m 1,0 C 1,3 C 3,7 km/h (1 Bft) 97,55 %
17.02.2018 01:00 0,6 C 4,4 C 98 % 1026,4 hPa 0,0 l/m 5,3 km/h (1 Bft) NO 0,00 h 0,000 mm 0,0 UV-I 0 W/m 0,3 C 0,2 C 7,2 km/h (2 Bft) 97,69 %
17.02.2018 02:00 0,3 C 4,4 C 98 % 1026,1 hPa 0,0 l/m 3,3 km/h (1 Bft) O-NO 0,00 h 0,000 mm 0,0 UV-I 0 W/m 0,1 C 0,3 C 4,5 km/h (1 Bft) 98,66 %
17.02.2018 03:00 0,6 C 4,4 C 98 % 1025,4 hPa 0,0 l/m 2,9 km/h (1 Bft) NO 0,00 h 0,000 mm 0,0 UV-I 0 W/m 0,3 C 0,6 C 3,9 km/h (1 Bft) 95,95 %
17.02.2018 04:00 0,6 C 4,4 C 98 % 1024,5 hPa 0,0 l/m 3,6 km/h (1 Bft) NO 0,00 h 0,000 mm 0,0 UV-I 0 W/m 0,3 C 0,6 C 4,7 km/h (1 Bft) 97,18 %
17.02.2018 05:00 0,7 C 4,4 C 98 % 1023,5 hPa 0,0 l/m 7,8 km/h (2 Bft) NO 0,00 h 0,000 mm 0,0 UV-I 0 W/m 0,4 C -0,8 C 10,2 km/h (2 Bft) 97,19 %
17.02.2018 06:00 0,6 C 4,4 C 98 % 1022,7 hPa 0,0 l/m 10,2 km/h (2 Bft) NO 0,00 h 0,000 mm 0,0 UV-I 0 W/m 0,4 C -2,8 C 13,7 km/h (3 Bft) 99,11 %
17.02.2018 07:00 0,8 C 4,4 C 98 % 1022,2 hPa 0,0 l/m 11,2 km/h (2 Bft) O-NO 0,00 h 0,000 mm 0,0 UV-I 9 W/m 0,6 C -3,4 C 15,3 km/h (3 Bft) 96,76 %
17.02.2018 08:00 0,9 C 4,4 C 97 % 1021,3 hPa 0,0 l/m 12,3 km/h (3 Bft) O-NO 0,00 h 0,000 mm 0,0 UV-I 30 W/m 0,5 C -4,2 C 16,6 km/h (3 Bft) 96,81 %
17.02.2018 09:00 1,1 C 4,4 C 96 % 1020,2 hPa 0,0 l/m 15,4 km/h (3 Bft) NO 0,00 h 0,025 mm 0,0 UV-I 49 W/m 0,5 C -5,8 C 20,4 km/h (4 Bft) 97,39 %
17.02.2018 10:00 1,3 C 4,4 C 96 % 1018,8 hPa 0,0 l/m 23,0 km/h (4 Bft) O-NO 0,00 h 0,026 mm 0,0 UV-I 60 W/m 0,7 C -9,2 C 29,6 km/h (5 Bft) 98,44 %
17.02.2018 11:00 1,1 C 4,4 C 96 % 1018,3 hPa 0,0 l/m 21,5 km/h (4 Bft) O-NO 0,00 h 0,025 mm 0,0 UV-I 50 W/m 0,5 C -8,7 C 27,9 km/h (4 Bft) 97,58 %
17.02.2018 12:00 0,7 C 4,4 C 96 % 1017,5 hPa 0,0 l/m 23,9 km/h (4 Bft) O 0,00 h 0,026 mm 0,4 UV-I 75 W/m 0,2 C -10,3 C 30,9 km/h (5 Bft) 97,21 %
17.02.2018 13:00 0,6 C 4,4 C 96 % 1017,1 hPa 0,0 l/m 18,8 km/h (3 Bft) O 0,00 h 0,025 mm 0,0 UV-I 70 W/m -0,0 C -8,2 C 24,8 km/h (4 Bft) 97,40 %
17.02.2018 14:00 0,2 C 4,4 C 96 % 1016,6 hPa 0,0 l/m 17,5 km/h (3 Bft) O 0,00 h 0,025 mm 0,0 UV-I 48 W/m -0,4 C -8,0 C 24,2 km/h (4 Bft) 98,85 %
17.02.2018 15:00 -0,2 C 4,4 C 96 % 1017,0 hPa 0,0 l/m 18,2 km/h (3 Bft) O 0,00 h 0,026 mm 0,0 UV-I 32 W/m -0,7 C -8,8 C 23,7 km/h (4 Bft) 96,95 %
17.02.2018 16:00 -0,2 C 4,4 C 96 % 1017,4 hPa 0,0 l/m 14,8 km/h (3 Bft) O 0,00 h 0,025 mm 0,0 UV-I 32 W/m -0,8 C -6,9 C 20,3 km/h (4 Bft) 96,10 %
17.02.2018 17:00 -0,2 C 4,4 C 96 % 1017,6 hPa 0,0 l/m 14,1 km/h (3 Bft) O 0,00 h 0,026 mm 0,0 UV-I 7 W/m -0,8 C -6,5 C 18,8 km/h (3 Bft) 96,62 %
17.02.2018 18:00 -0,3 C 4,4 C 96 % 1017,8 hPa 0,0 l/m 10,5 km/h (2 Bft) O-NO 0,00 h 0,000 mm 0,0 UV-I 0 W/m -0,8 C -4,1 C 14,4 km/h (3 Bft) 98,57 %
17.02.2018 19:00 -0,4 C 4,4 C 97 % 1018,3 hPa 0,0 l/m 7,0 km/h (2 Bft) NO 0,00 h 0,000 mm 0,0 UV-I 0 W/m -0,8 C -1,3 C 9,2 km/h (2 Bft) 97,42 %
17.02.2018 20:00 -0,7 C 4,4 C 97 % 1018,9 hPa 0,0 l/m 7,8 km/h (2 Bft) NO 0,00 h 0,000 mm 0,0 UV-I 0 W/m -1,2 C -2,2 C 10,5 km/h (2 Bft) 96,59 %
17.02.2018 21:00 -0,8 C 4,1 C 97 % 1019,6 hPa 0,0 l/m 3,0 km/h (1 Bft) N-NO 0,00 h 0,000 mm 0,0 UV-I 0 W/m -1,2 C -0,8 C 4,0 km/h (1 Bft) 97,43 %
17.02.2018 22:00 -0,8 C 3,9 C 97 % 1020,4 hPa 0,0 l/m 0,0 km/h (0 Bft) N-NO 0,00 h 0,000 mm 0,0 UV-I 0 W/m -1,2 C -0,8 C 0,2 km/h (0 Bft) 97,77 %
17.02.2018 23:00 -0,9 C 3,9 C 97 % 1021,2 hPa 0,0 l/m 0,3 km/h (0 Bft) W 0,00 h 0,000 mm 0,0 UV-I 0 W/m -1,3 C -0,9 C 0,6 km/h (0 Bft) 96,96 %
18.02.2018 00:00 -0,8 C 3,9 C 97 % 1021,9 hPa 0,0 l/m 2,1 km/h (1 Bft) W-SW 0,00 h 0,000 mm 0,0 UV-I 0 W/m -1,2 C -0,8 C 3,4 km/h (1 Bft) 90,89 %
18.02.2018 01:00 -0,9 C 3,9 C 97 % 1022,6 hPa 0,0 l/m 0,4 km/h (0 Bft) W-SW 0,00 h 0,000 mm 0,0 UV-I 0 W/m -1,3 C -0,9 C 1,1 km/h (0 Bft) 99,01 %
18.02.2018 02:00 -1,0 C 3,9 C 97 % 1023,2 hPa 0,0 l/m 0,3 km/h (0 Bft) W-SW 0,00 h 0,000 mm 0,0 UV-I 0 W/m -1,4 C -1,0 C 0,9 km/h (0 Bft) 97,53 %
18.02.2018 03:00 -1,1 C 3,9 C 97 % 1023,8 hPa 0,0 l/m 0,5 km/h (0 Bft) W-NW 0,00 h 0,000 mm 0,0 UV-I 0 W/m -1,5 C -1,1 C 1,6 km/h (1 Bft) 98,12 %
18.02.2018 04:00 -1,0 C 3,9 C 98 % 1024,4 hPa 0,0 l/m 1,6 km/h (1 Bft) W-NW 0,00 h 0,000 mm 0,0 UV-I 0 W/m -1,3 C -1,0 C 3,0 km/h (1 Bft) 95,28 %
18.02.2018 05:00 -0,9 C 3,9 C 98 % 1025,0 hPa 0,0 l/m 1,1 km/h (0 Bft) W 0,00 h 0,000 mm 0,0 UV-I 0 W/m -1,2 C -0,9 C 2,2 km/h (1 Bft) 98,64 %
18.02.2018 06:00 -1,0 C 3,9 C 97 % 1025,6 hPa 0,0 l/m 1,3 km/h (1 Bft) W-SW 0,00 h 0,000 mm 0,0 UV-I 0 W/m -1,4 C -1,0 C 2,4 km/h (1 Bft) 97,75 %
18.02.2018 07:00 -1,2 C 3,9 C 97 % 1026,2 hPa 0,0 l/m 0,4 km/h (0 Bft) W-SW 0,00 h 0,000 mm 0,0 UV-I 11 W/m -1,6 C -1,2 C 1,0 km/h (0 Bft) 96,18 %
18.02.2018 08:00 -0,6 C 3,9 C 97 % 1026,7 hPa 0,0 l/m 0,0 km/h (0 Bft) N 0,00 h 0,000 mm 0,0 UV-I 66 W/m -1,0 C -0,6 C 0,0 km/h (0 Bft) 97,51 %
18.02.2018 09:00 -0,1 C 3,9 C 96 % 1026,8 hPa 0,0 l/m 0,4 km/h (0 Bft) N-NO 0,00 h 0,025 mm 0,5 UV-I 95 W/m -0,7 C -0,1 C 0,7 km/h (0 Bft) 97,15 %
18.02.2018 10:00 0,3 C 3,9 C 94 % 1027,2 hPa 0,0 l/m 1,7 km/h (1 Bft) N-NO 0,00 h 0,026 mm 0,5 UV-I 169 W/m -0,5 C 0,3 C 2,4 km/h (1 Bft) 98,82 %
18.02.2018 11:00 0,8 C 3,9 C 93 % 1027,6 hPa 0,6 l/m 5,2 km/h (1 Bft) NO 0,50 h 0,051 mm 0,9 UV-I 272 W/m -0,3 C 0,7 C 6,7 km/h (2 Bft) 96,54 %
18.02.2018 12:00 1,0 C 3,9 C 90 % 1027,5 hPa 2,6 l/m 6,0 km/h (2 Bft) O-NO 0,78 h 0,101 mm 1,0 UV-I 296 W/m -0,4 C 0,8 C 8,1 km/h (2 Bft) 98,70 %
18.02.2018 13:00 1,1 C 3,9 C 89 % 1027,1 hPa 1,0 l/m 7,2 km/h (2 Bft) O-NO 0,22 h 0,102 mm 0,8 UV-I 255 W/m -0,5 C 0,2 C 10,1 km/h (2 Bft) 97,72 %
18.02.2018 14:00 1,3 C 3,9 C 88 % 1027,0 hPa 0,2 l/m 9,0 km/h (2 Bft) O-NO 0,47 h 0,101 mm 0,6 UV-I 229 W/m -0,4 C -1,1 C 12,5 km/h (3 Bft) 95,61 %
18.02.2018 15:00 1,6 C 3,9 C 86 % 1026,9 hPa 0,0 l/m 12,4 km/h (3 Bft) O 0,83 h 0,077 mm 0,5 UV-I 208 W/m -0,4 C -3,4 C 16,5 km/h (3 Bft) 96,76 %
18.02.2018 16:00 1,1 C 3,9 C 89 % 1027,1 hPa 0,0 l/m 8,6 km/h (2 Bft) O-SO 0,68 h 0,076 mm 0,0 UV-I 88 W/m -0,5 C -1,0 C 12,4 km/h (3 Bft) 98,40 %
18.02.2018 17:00 0,3 C 4,0 C 92 % 1027,1 hPa 0,0 l/m 5,2 km/h (1 Bft) O 0,17 h 0,025 mm 0,0 UV-I 15 W/m -0,8 C 0,1 C 7,3 km/h (2 Bft) 97,20 %
18.02.2018 18:00 0,6 C 4,2 C 90 % 1027,1 hPa 0,0 l/m 9,3 km/h (2 Bft) O-NO 0,00 h 0,000 mm 0,0 UV-I 0 W/m -0,8 C -2,2 C 12,8 km/h (3 Bft) 97,79 %
18.02.2018 19:00 0,5 C 4,3 C 90 % 1026,8 hPa 0,0 l/m 9,4 km/h (2 Bft) O 0,00 h 0,000 mm 0,0 UV-I 0 W/m -1,0 C -2,4 C 13,3 km/h (3 Bft) 95,36 %
18.02.2018 20:00 0,1 C 4,4 C 90 % 1026,5 hPa 0,0 l/m 10,1 km/h (2 Bft) NO 0,00 h 0,000 mm 0,0 UV-I 0 W/m -1,3 C -3,3 C 13,7 km/h (3 Bft) 99,00 %
18.02.2018 21:00 -0,2 C 4,4 C 92 % 1026,1 hPa 0,0 l/m 12,6 km/h (3 Bft) O-NO 0,00 h 0,000 mm 0,0 UV-I 0 W/m -1,4 C -5,6 C 17,5 km/h (3 Bft) 97,43 %
18.02.2018 22:00 -0,5 C 4,0 C 92 % 1025,5 hPa 0,0 l/m 11,3 km/h (2 Bft) O-NO 0,00 h 0,000 mm 0,0 UV-I 0 W/m -1,7 C -5,0 C 15,4 km/h (3 Bft) 97,59 %
18.02.2018 23:00 -0,7 C 3,9 C 90 % 1025,0 hPa 0,0 l/m 12,0 km/h (2 Bft) O-NO 0,00 h 0,000 mm 0,0 UV-I 0 W/m -2,1 C -5,8 C 16,4 km/h (3 Bft) 96,52 %
Min-Datum _ 15.02.18 17.02.18 13.02.18 12.02.18 - 13.02.18 - - - - - 15.02.18 17.02.18 13.02.18 13.02.18
_ Min-Zeit 06:29 21:26 13:07 00:00 - 09:58 - - - - - 06:15 11:59 09:58 00:02
Minimum _ -7,2 C 3,9 C 63 % 1008,4 hPa - 0,0 km/h (0 Bft) - - - - - -7,9 C -12,9 C 0,0 km/h (0 Bft) 9,09 %
Max-Datum _ 16.02.18 12.02.18 16.02.18 18.02.18 18.02.18 17.02.18 - 12.02.18 13.02.18 13.02.18 13.02.18 16.02.18 16.02.18 17.02.18 12.02.18
_ Max-Zeit 14:14 00:00 05:44 11:28 12:00 11:59 - 17:10 12:01 11:45 11:45 14:18 14:18 11:58 00:03
Maximum _ 4,6 C 4,4 C 98 % 1027,7 hPa 2,6 l/m 32,6 km/h
O-NO (5 Bft)
- 0,05 h 0,177 mm 1,2 UV-I 675 W/m 3,9 C 4,6 C 40,2 km/h
O-NO (6 Bft)
100,00 %
Durchschnitt _ -0,1 C 4,3 C 92 % 1019,9 hPa #12,8 l/m 6,3 km/h (2 Bft) W-SW #16:04 h #3,430 mm 0,6 UV-I 121 W/m -1,3 C -1,6 C 8,8 km/h (2 Bft) 97,47 %